This is the latest recevied weather packets stored in our database for station/object KN6KS. If no packets are shown the sender has not sent any weather packets the latest 10 day(s).
| Time | Temp. | Humidity | Pressure | Rain* | Wind** | Luminosity | Snow |
|---|---|---|---|---|---|---|---|
| 1778103449 | 26.67° C | 26% | 1015.5 hPa | 0 mm | - | 614 W/m² | - |
| 1778103146 | 26.67° C | 25% | 1015.5 hPa | 0 mm | - | 647 W/m² | - |
| 1778102843 | 26.11° C | 26% | 1015.3 hPa | 0 mm | - | 671 W/m² | - |
| 1778102538 | 26.11° C | 25% | 1015.5 hPa | 0 mm | - | 660 W/m² | - |
| 1778102234 | 26.67° C | 25% | 1015.5 hPa | 0 mm | - | 649 W/m² | - |
| 1778101930 | 26.67° C | 25% | 1015.5 hPa | 0 mm | - | 661 W/m² | - |
| 1778101628 | 27.22° C | 25% | 1015.5 hPa | 0 mm | - | 690 W/m² | - |
| 1778101324 | 27.22° C | 25% | 1015.6 hPa | 0 mm | - | 702 W/m² | - |
| 1778101022 | 27.22° C | 24% | 1015.8 hPa | 0 mm | - | 710 W/m² | - |
| 1778100716 | 27.22° C | 24% | 1015.5 hPa | 0 mm | - | 730 W/m² | - |
| 1778100414 | 26.11° C | 27% | 1015.7 hPa | 0 mm | - | 727 W/m² | - |
| 1778100111 | 26.11° C | 26% | 1015.7 hPa | 0 mm | - | 694 W/m² | - |
| 1778099809 | 26.67° C | 26% | 1015.7 hPa | 0 mm | - | 696 W/m² | - |
| 1778099506 | 25.56° C | 27% | 1015.7 hPa | 0 mm | - | 699 W/m² | - |
| 1778099204 | 26.11° C | 27% | 1015.9 hPa | 0 mm | - | 712 W/m² | - |
| 1778098899 | 26.67° C | 26% | 1015.7 hPa | 0 mm | - | 713 W/m² | - |
| 1778098597 | 25.56° C | 27% | 1015.9 hPa | 0 mm | - | 724 W/m² | - |
| 1778098293 | 26.11° C | 26% | 1016.1 hPa | 0 mm | - | 729 W/m² | - |
| 1778097990 | 26.11° C | 26% | 1016 hPa | 0 mm | - | 723 W/m² | - |
| 1778097687 | 26.11° C | 26% | 1016.1 hPa | 0 mm | - | 700 W/m² | - |
| 1778097383 | 25.56° C | 27% | 1015.9 hPa | 0 mm | - | 704 W/m² | - |
| 1778097080 | 25.56° C | 27% | 1015.9 hPa | 0 mm | - | 714 W/m² | - |
| 1778096777 | 25.56° C | 26% | 1016.1 hPa | 0 mm | - | 700 W/m² | - |
| 1778096473 | 25° C | 30% | 1015.9 hPa | 0 mm | - | 659 W/m² | - |
| 1778096171 | 25° C | 29% | 1016.1 hPa | 0 mm | - | 681 W/m² | - |
* Rain latest hour (hover to see other rain measurements)
** Current wind speed in m/s (hover to see current wind gust speed)